Regional Weather Roundup
Issued by NWS

Home | Current Version | Previous Version | Text Only | Print | Product List | Glossary On
Versions: 1 2 3 4 5 6 7 8 9 10 11 12 13 14 15 16 17 18 19 20 21 22 23 24 25 26 27 28 29 30 31 32 33 34 35 36 37 38 39 40 41 42 43 44 45 46 47 48 49 50
000
ASUS43 KIND 201809
RWRIN

WEATHER ROUNDUP FOR INDIANA
NATIONAL WEATHER SERVICE INDIANAPOLIS IN
200 PM EDT TUE AUG 20 2019

NOTE: "FAIR" INDICATES FEW OR NO CLOUDS BELOW 12,000 FEET WITH NO
SIGNIFICANT WEATHER AND/OR OBSTRUCTIONS TO VISIBILITY.

* - STATION DOES NOT REPORT WEATHER SUCH AS PRECIPITATION OR FOG.

+ - STATION NOT QUALITY CONTROLLED BY THE NATIONAL WEATHER SERVICE.
    USE DATA WITH CAUTION...ESPECIALLY DEWPOINT AND RELATIVE
    HUMIDITY OBSERVATIONS.

INZ001>003-010>013-019-020-201900-
NORTHWEST INDIANA

CITY           SKY/WX    TMP DP  RH WIND       PRES   REMARKS
GARY /AIRPORT/ LGT RAIN  70  66  88 SW7       30.02R
KNOX *+        FAIR      79  72  78 SW5       30.00S
LA PORTE +     FAIR      77  73  88 SW5       30.01S
6HR MIN TEMP:  71; 6HR MAX TEMP:  79;

MICHIGAN CITY+ PTSUNNY  N/A N/A N/A S5        30.00S
MONTICELLO +   PTSUNNY   81  75  83 W16G23    30.03R
6HR MIN TEMP:  72; 6HR MAX TEMP:  83;

RENSSELAER +   TSTM      68  64  88 W14G26    30.06R
VALPARAISO     LGT RAIN  75  65  70 W22G32    30.04R
6HR MIN TEMP:  73; 6HR MAX TEMP:  81;


$$

LMZ046-743>745-201900-
SOUTHERN LAKE MICHIGAN

STATION/POSITION TIME  TEMP    WIND        PRES    WAVE
                       AIR SEA DIR/SP/G            HT
                 (UTC) (F)     (DEG/KT/KT) (MB)    (FT)
BURNS HARBOR     1740   78     200/  4/  6 1015.9S
MICHIGAN CITY    1740   79     180/  8/ 10   N/A
5NW MICH CITY    1800   77 76  210/  4/  6   N/A     0

$$

INZ004-005-014>016-021>024-201900-
NORTH CENTRAL INDIANA

CITY           SKY/WX    TMP DP  RH WIND       PRES   REMARKS
ELKHART        FAIR      84  73  70 SW6       30.00F HX  91
GOSHEN         FAIR      84  75  74 S8        29.99F HX  92
6HR MIN TEMP:  72; 6HR MAX TEMP:  85;

LOGANSPORT +   FAIR      81  73  78 SW5       30.02S
PLYMOUTH *+    SUNNY     81  75  83 S5        30.00S
ROCHESTER +    FAIR      82  73  74 SW6       30.01F
SOUTH BEND     FAIR      81  74  79 SW8       30.00F
6HR MIN TEMP:  73; 6HR MAX TEMP:  83;

WARSAW +       FAIR      81  73  78 CALM      30.00F

$$

INZ006>009-017-018-025>027-201900-
NORTHEAST INDIANA

CITY           SKY/WX    TMP DP  RH WIND       PRES   REMARKS
ANGOLA *+      PTSUNNY   84 N/A N/A S9        30.01F
AUBURN +       PTSUNNY   84  72  65 S5        30.02F
FORT WAYNE     CLOUDY    85  75  72 S15       30.02F HX  93
6HR MIN TEMP:  71; 6HR MAX TEMP:  86;

HUNTINGTON +   FAIR      83  75  75 SW6       30.01F HX  91
6HR MIN TEMP:  70; 6HR MAX TEMP:  84;

KENDALLVILLE + PTSUNNY   83  72  69 SW9       30.02F

$$

INZ028-029-035-036-043>045-051>053-201900-
WEST CENTRAL INDIANA

CITY           SKY/WX    TMP DP  RH WIND       PRES   REMARKS
CRAWFORDSVL +  TSTM      75  68  79 NW26G41   30.09R
6HR MIN TEMP:  69; 6HR MAX TEMP:  82; 6HR PCP:  0.01;

GREENCASTLE +  FAIR      81  75  83 W3        30.06R
LAFAYETTE      LGT RAIN  70  65  84 NW21G43   30.05R
6HR MIN TEMP:  70; 6HR MAX TEMP:  85; 6HR PCP: TRACE;

TERRE HAUTE    TSTM      69  66  90 NW15G31   30.12R
6HR MIN TEMP:  69; 6HR MAX TEMP:  86; 6HR PCP:  0.46;


$$

INZ030>032-037>040-046>048-054>057-064-065-201900-
CENTRAL INDIANA

CITY           SKY/WX    TMP DP  RH WIND       PRES   REMARKS
COLUMBUS       PTSUNNY   88  73  62 SW10      30.02F HX  96
FISHERS *+     FAIR      86  79  79 SW9       30.02F HX  99
FRANKFORT +    PTSUNNY   84  77  78 SW3       30.04F HX  94
6HR MIN TEMP:  74; 6HR MAX TEMP:  87;

INDIANAPOLIS   CLOUDY    86  75  69 SW12      30.02F HX  95
6HR MIN TEMP:  75; 6HR MAX TEMP:  87;

-EAGLE CREEK   PTSUNNY   86  74  67 SW8       30.02F HX  94
6HR MIN TEMP:  74; 6HR MAX TEMP:  87;

KOKOMO +       PTSUNNY   82  77  83 S10       30.01F HX  91
6HR MIN TEMP:  73; 6HR MAX TEMP:  85;

MARION +       FAIR      83  79  87 CALM      30.02F HX  95
MT COMFORT *+  FAIR      84  81  89 CALM      30.03F HX  98
SHELBYVILLE    PTSUNNY   87  75  67 S7        30.02F HX  96
6HR MIN TEMP:  73; 6HR MAX TEMP:  87; 6HR PCP:  0.03;

ZIONSVILLE +   FAIR      83  80  91 SW7       30.03F HX  94
6HR MIN TEMP:  70; 6HR MAX TEMP:  83;


$$

INZ033-034-041-042-049-050-058-059-201900-
EAST CENTRAL INDIANA

CITY           SKY/WX    TMP DP  RH WIND       PRES   REMARKS
MUNCIE         FAIR      87  75  67 SW9       30.02F HX  96
6HR MIN TEMP:  75; 6HR MAX TEMP:  88;

PORTLAND +     FAIR      86  68  54 SW12      30.01F

$$

INZ060-061-067>069-081>083-085>088-201900-
SOUTHWEST INDIANA

CITY           SKY/WX    TMP DP  RH WIND       PRES   REMARKS
EVANSVILLE     FAIR      90  75  61 SW10      30.05F HX 100
6HR MIN TEMP:  76; 6HR MAX TEMP:  91;

HUNTINGBURG +  FAIR      89  79  72 SW10      30.04F HX 104
6HR MIN TEMP:  76; 6HR MAX TEMP:  89;

WASHINGTON +   CLOUDY   N/A N/A N/A S7        30.04R

$$

INZ062-063-066-070>080-084-089>092-201900-
SOUTH CENTRAL AND SOUTHEAST INDIANA

CITY           SKY/WX    TMP DP  RH WIND       PRES   REMARKS
BATESVILLE +   SUNNY     86  77  74 VRB5      30.03F HX  97
BEDFORD +        N/A     88  70  55 W7        30.03F THUNDER HX  92
BLOOMINGTON    FAIR      83  70  64 W10       30.04F
6HR MIN TEMP:  75; 6HR MAX TEMP:  88;

FRENCH LICK *+ FAIR      86  72  62 SW8       30.05F HX  92
JEFFERSONVL +  FAIR      93  70  46 SW9       30.02F HX  99
6HR MIN TEMP:  73; 6HR MAX TEMP:  94;

MADISON *+     PTSUNNY   72  68  88 N9G40     30.09R VSB 1/2
NORTH VERNON + FAIR      88  72  58 SW12      30.03F HX  94

$$




USA.gov is the U.S. government's official web portal to all federal, state and local government web resources and services.